Regional Weather Roundup
Issued by NWS Kansas City/Pleasant Hill, MO

Home | Current Version | Previous Version | Graphics & Text | Print | Product List | Glossary Off
Versions: 1 2 3 4 5 6 7 8 9 10 11 12 13 14 15 16 17 18 19 20 21 22 23 24 25 26 27 28 29 30 31 32 33 34 35 36 37 38 39 40 41 42 43 44 45 46 47 48 49 50

000
ASUS43 KEAX 102210
RWREAX

WEATHER ROUNDUP FOR EASTERN KANSAS AND NORTHWEST MISSOURI
NATIONAL WEATHER SERVICE KANSAS CITY/PLEASANT HILL MO
400 PM CST WED FEB 10 2016

KSZ040-057-103>105-MOZ028-029-037-043-102300-
...KANSAS CITY METROPOLITAN AREA...

CITY           SKY/WX    TMP DP  RH WIND       PRES   REMARKS
K.C. INTL      MOSUNNY   48  22  35 VRB5      29.92R
K.C. DOWNTOWN  SUNNY     50  21  32 SW7       29.92R
LEES SUMMIT    SUNNY     47  20  34 S5        29.92R
OLATHE - IXD   SUNNY     50  23  34 SW8       29.91R
OLATHE - OJC   SUNNY     47  20  34 S8        29.91R
LAWRENCE       SUNNY     54  24  31 S6        29.90R

$$

MOZ001>008-011>017-020>025-030>033-038>040-044>046-053-054-102300-
...NORTHERN AND CENTRAL MISSOURI...

CITY           SKY/WX    TMP DP  RH WIND       PRES   REMARKS
ST. JOSEPH     SUNNY     47  20  34 SE5       29.92R
MOSBY          CLEAR     45  18  33 E6        29.93S
WARRENSBURG    SUNNY     43  19  39 SE6       29.95S
WHITEMAN AFB   MOSUNNY   43  18  36 SW6       29.95R
CLINTON          N/A     45  23  42 S7        29.95S
SEDALIA        SUNNY     43  16  33 S7        29.98R
WARSAW         NOT AVBL
CHILLICOTHE      N/A     32  22  66 SE13      30.01R WCI  22
KIRKSVILLE     CLOUDY    22  16  78 E9        30.05S WCI  12

$$

MOZ041-047>049-056>058-063>065-088>090-097-102300-
...EASTERN AND SOUTHERN MISSOURI...

CITY           SKY/WX    TMP DP  RH WIND       PRES   REMARKS
ST. LOUIS INTL LGT SNOW  23  16  74 S6        30.14R WCI  16
SPIRIT OF STL  LGT SNOW  22  18  85 S3        30.13R VSB 1
COLUMBIA       SUNNY     27  20  75 E9        30.04R WCI  18
JEFFERSON CITY CLOUDY    28  20  71 E10       30.06S WCI  19
ROLLA          CLOUDY    27  20  75 E12       30.01F WCI  17
OSAGE BEACH    MOSUNNY   45  18  33 S12       29.98S
SPRINGFIELD    SUNNY     50  19  29 SW12      29.94F
BRANSON        SUNNY     50  19  29 SW10      29.99F
JOPLIN         SUNNY     51  22  31 SW14      29.95F
WEST PLAINS    SUNNY     41  13  31 S10G20    30.02F WCI  35

$$

IAZ060-094-KSZ022-034>040-054-083-096-NEZ052-066-093-102300-
...KANSAS...SOUTHEAST NEBRASKA AND IOWA...

CITY           SKY/WX    TMP DP  RH WIND       PRES   REMARKS
TOPEKA         SUNNY     58  26  29 SW8       29.87S
MANHATTAN      SUNNY     62  30  29 W10       29.86S
EMPORIA        SUNNY     63  27  25 W10       29.87F
CHANUTE        SUNNY     58  26  29 S14       29.92F
WICHITA        SUNNY     69  32  25 SW9       29.89F
OMAHA          MOSUNNY   37  23  56 E6        29.93R WCI  32
LINCOLN        SUNNY     39  28  64 NE8       29.92R WCI  33
FALLS CITY     SUNNY     52  28  39 N6        29.89R
LAMONI         CLOUDY    26  20  77 E9        29.98R WCI  17
DES MOINES     CLOUDY    19  12  74 E9        30.06R WCI   8

$$




USA.gov is the U.S. government's official web portal to all federal, state and local government web resources and services.